Flag for Germany Weather past 2 weeks in Detmold, North Rhine-Westphalia, Germany

Now
33 °F

Low clouds.


Feels Like: 33 °F
Forecast: 31 / 35 °F
Wind: 2 mph from West

Location: Bad Lippspringe

Current Time: Feb 1, 2015 at 11:24:14 PM

Latest Report: Feb 1, 2015 at 11:00 PM


Visibility: 3 mi

Pressure: 29.35 "Hg

Humidity: 97%

Dew point: 32 °F

Location of DetmoldLocation

Historic Weather in Detmold — Graph

°F

Detmold temperature yesterday

Maximum temperature yesterday: 36 °F (at 3:00 PM)
Minimum temperature yesterday: 28 °F (at 12:00 AM)
Average temperature yesterday: 33 °F

Past Weeks' High & Low Weather Summary

 TemperatureHumidityPressure
High42 °F (Jan 28, 2:00 PM)100% (Jan 24, 7:00 PM)30.39 "Hg (Jan 24, 7:00 PM)
Low25 °F (Jan 24, 4:00 AM)69% (Jan 18, 2:00 PM)28.67 "Hg (Jan 30, 3:00 AM)
Average33 °F88%29.78 "Hg
* Reported Jan 17 10:00 PM — Feb 1 10:00 PM, Detmold, Weather by CustomWeather, © 2014

Note: Actual official high and low records may vary slightly from our data, if they occured in-between our weather recording intervals... More about our weather records

Advertising

Detmold weather history for previous 24 hours

 ConditionsComfort  
Time TempWeatherWind HumidityBarometerVisibility
10:00 PM
Feb 1
34 °FLow clouds.2 mph96%29.35 "Hg5 mi
9:00 PM33 °FLow clouds.2 mph100%29.35 "Hg1 mi
8:00 PM33 °FDrizzle. Low clouds.2 mph98%29.32 "Hg2 mi
7:00 PM33 °FLight freezing rain. Low clouds.2 mph99%29.32 "Hg2 mi
6:00 PM33 °FDrizzle. Low clouds.1 mph99%29.29 "Hg2 mi
5:00 PM33 °FDrizzle. Low clouds.2 mph96%29.26 "Hg4 mi
4:00 PM35 °FDrizzle. Overcast.2 mph84%29.26 "Hg11 mi
3:00 PM36 °FOvercast.3 mph74%29.23 "Hg16 mi
2:00 PM36 °FOvercast.2 mph75%29.23 "Hg11 mi
1:00 PM35 °FOvercast.3 mph76%29.23 "Hg12 mi
12:00 PM35 °FOvercast.5 mph77%29.23 "Hg11 mi
11:00 AM33 °FOvercast.1 mph80%29.21 "Hg11 mi
10:00 AM32 °FOvercast.3 mph80%29.21 "Hg11 mi
9:00 AM30 °FOvercast.1 mph85%29.21 "Hg9 mi
8:00 AM31 °FOvercast.1 mph84%29.18 "Hg9 mi
7:00 AM32 °FOvercast.2 mph85%29.15 "Hg25 mi
6:00 AM32 °FOvercast.1 mph86%29.15 "HgN/A
5:00 AM32 °FOvercast.1 mph86%29.15 "Hg19 mi
4:00 AM32 °FOvercast.2 mph87%29.12 "Hg17 mi
3:00 AM33 °FOvercast.2 mph87%29.15 "Hg19 mi
2:00 AM33 °FOvercast.2 mph86%29.12 "Hg31 mi
1:00 AM32 °FOvercast.2 mph88%29.12 "Hg31 mi
12:00 AM31 °FOvercast.1 mph88%29.12 "Hg43 mi
11:00 PM
Jan 31
32 °FOvercast.2 mph87%29.12 "Hg25 mi
Weather by CustomWeather, © 2014

See weather overviewHow to use our weather pages